Renton, WA

12:02 PM PDT on September 26, 2017 (GMT -0700)
Renton Municipal

Weather History for KRNT - May, 2013

Change the Weather History Date:

Wednesday, May 1, 2013

  Actual Average Record
Temperature  
Mean Temperature 50 °F -  
Max Temperature 63 °F 60 °F 87 °F (2014)
Min Temperature 37 °F 44 °F 37 °F (2011)
Degree Days  
Heating Degree Days 15    
Moisture  
Dew Point 35 °F    
Average Humidity 59    
Maximum Humidity 87    
Minimum Humidity 29    
Precipitation  
Precipitation 0.00 in - - ()
Sea Level Pressure  
Sea Level Pressure 30.56 in    
Wind  
Wind Speed 5 mph (NW)    
Max Wind Speed 12 mph    
Max Gust Speed -    
Visibility 10 miles    
Events      
Averages and records for this station are not official NWS values.
T = Trace of Precipitation, MM = Missing Value Source: NWS Daily Summary

Daily Weather History Graph

Daily Weather History Graph

Search for Another Location

Airport or City:

Trip Planner

Search our weather history database for the weather conditions in past years. The results will help you decide how hot, cold, wet, or windy it might be!

Date:

Astronomy

May. 01, 2013 Rise Set
Actual Time 5:51 AM PDT 8:21 PM PDT
Civil Twilight 5:17 AM PDT 8:55 PM PDT
Nautical Twilight 4:34 AM PDT 9:39 PM PDT
Astronomical Twilight 3:44 AM PDT 10:29 PM PDT
Moon 1:35 AM PDT (5/1) 11:36 AM PDT (5/1)
Length of Visible Light 15h 38m
Length of Day
14h 29m
Waning Gibbous, 58% of the Moon is Illuminated
May 1
Waning Gibbous
May 2
Last Quarter
May 9
New
May 17
First Quarter
May 24
Full

Hourly Weather History & Observations

Time (PDT) Temp. Windchill Dew Point Humidity Pressure Visibility Wind Dir Wind Speed Gust Speed Precip Events Conditions
12:53 AM 42.1 °F - 35.1 °F 76% 30.49 in 10.0 mi Calm Calm - N/A   Clear
1:53 AM 39.9 °F 36.7 °F 35.1 °F 83% 30.51 in 10.0 mi East 4.6 mph - N/A   Clear
2:53 AM 39.0 °F 35.7 °F 34.0 °F 82% 30.52 in 10.0 mi SSE 4.6 mph - N/A   Clear
3:53 AM 39.0 °F 35.7 °F 33.1 °F 79% 30.53 in 10.0 mi SSE 4.6 mph - N/A   Clear
4:53 AM 37.9 °F 35.5 °F 33.1 °F 83% 30.55 in 10.0 mi SE 3.5 mph - N/A   Clear
5:53 AM 37.4 °F - 33.8 °F 87% 30.54 in 10.0 mi Calm Calm - N/A   Clear
6:53 AM 37.9 °F - 33.1 °F 83% 30.58 in 10.0 mi Calm Calm - N/A   Clear
7:53 AM 41.0 °F - 33.1 °F 73% 30.59 in 10.0 mi Calm Calm - N/A   Clear
8:53 AM 45.0 °F - 35.1 °F 68% 30.60 in 10.0 mi Calm Calm - N/A   Clear
9:53 AM 46.9 °F - 36.0 °F 66% 30.59 in 10.0 mi NW 4.6 mph - N/A   Clear
10:53 AM 52.0 °F - 37.9 °F 59% 30.59 in 10.0 mi WNW 9.2 mph - N/A   Clear
11:53 AM 55.0 °F - 36.0 °F 49% 30.59 in 10.0 mi NW 8.1 mph - N/A   Clear
12:53 PM 57.2 °F - 35.6 °F 44% 30.56 in 10.0 mi NW 11.5 mph - N/A   Clear
1:53 PM 60.1 °F - 34.0 °F 38% 30.57 in 10.0 mi NW 11.5 mph - N/A   Clear
2:53 PM 61.0 °F - 33.1 °F 35% 30.57 in 10.0 mi NW 10.4 mph - N/A   Clear
3:53 PM 62.1 °F - 28.9 °F 29% 30.56 in 10.0 mi NW 10.4 mph - N/A   Clear
4:53 PM 63.0 °F - 30.0 °F 29% 30.55 in 10.0 mi NW 11.5 mph - N/A   Clear
5:53 PM 63.0 °F - 30.9 °F 30% 30.54 in 10.0 mi NW 10.4 mph - N/A   Clear
6:53 PM 61.0 °F - 34.0 °F 36% 30.54 in 10.0 mi NW 10.4 mph - N/A   Clear
7:53 PM 57.9 °F - 37.9 °F 47% 30.54 in 10.0 mi NW 8.1 mph - N/A   Clear
8:53 PM 55.9 °F - 37.9 °F 51% 30.55 in 10.0 mi NW 8.1 mph - N/A   Clear
9:53 PM 53.1 °F - 42.1 °F 66% 30.56 in 10.0 mi NNW 5.8 mph - N/A   Clear
10:53 PM 52.0 °F - 43.0 °F 71% 30.56 in 10.0 mi North 3.5 mph - N/A   Clear
11:53 PM 53.1 °F - 37.0 °F 55% 30.56 in 10.0 mi NW 8.1 mph - N/A   Clear